Notices

What's New in latest Release from April 7th, 2021:

- Updated Glossary, including Speed of Maximum Gust, and Total Hourly Precipitation

- Updated national and regional climate services offices contacts and prices information

- Addition of station inventory lists for 1981-2010, 1971-2000, and 1961-1990 Normals.

If you haven't already, please take our survey and provide feedback about our website: https://eccc.sondage-survey.ca/f/LanguageSelection.aspx?s=442ca660-fcf1-47c0-95a9-59707d6fd709

Hourly Data Report for March 30, 2021

MIRAMICHI RCS
NEW BRUNSWICK
Current Station Operator: ECCC - MSC

47°00'34.000" N
65°27'54.000" W
33.00 m
8100989
71744
ACQ

Download Data

Hourly Data (March 2021)
Hourly Data Report for March 30, 2021
TIME
LST
Temp Definition
°C
Dew Point Definition
°C
Rel Hum Definition
%
Precip. Amount Definition
mm

Wind Dir Definition
10's deg

Wind Spd Definition
km/h
Visibility Definition
km
Stn Press Definition
kPa
Hmdx Definition


Wind Chill Definition


Weather Definition


00:00 -2.7 -10.5 55 LegendMM 29 29   100.86   -10 LegendNANA
01:00 -3.5 -10.4 59 LegendMM 28 19   101.06   -9 LegendNANA
02:00 -3.9 -11.6 55 LegendMM 28 19   101.22   -10 LegendNANA
03:00 -4.3 -11.8 56 LegendMM 29 13   101.41   -9 LegendNANA
04:00 -4.5 -12.1 55 LegendMM 28 17   101.52   -10 LegendNANA
05:00 -5.2 -12.2 58 LegendMM 27 11   101.72   -10 LegendNANA
06:00 -6.6 -11.9 66 LegendMM 22 7   101.89   -10 LegendNANA
07:00 -5.6 -11.6 63 LegendMM 24 10   102.05   -10 LegendNANA
08:00 -4.1 -11.5 57 LegendMM 26 17   102.20   -10 LegendNANA
09:00 -2.5 -12.0 48 LegendMM 26 16   102.25   -8 LegendNANA
10:00 -1.3 -10.7 49 LegendMM 24 17   102.34   -6 LegendNANA
11:00 -0.2 -11.4 43 LegendMM 22 12   102.26   -4 LegendNANA
12:00 1.7 -11.3 37 LegendMM 23 23   102.27     LegendNANA
13:00 3.4 -11.4 33 LegendMM 22 17   102.20     LegendNANA
14:00 5.0 -11.3 30 LegendMM 23 16   102.16     LegendNANA
15:00 5.9 -11.6 27 LegendMM 23 21   102.13     LegendNANA
16:00 6.7 -9.8 30 LegendMM 21 19   102.09     LegendNANA
17:00 7.2 -10.1 28 LegendMM 22 18   102.08     LegendNANA
18:00 6.3 -8.2 35 LegendMM 21 16   102.07     LegendNANA
19:00 4.5 -9.3 36 LegendMM 18 9   102.04     LegendNANA
20:00 2.9 -8.8 42 LegendMM 14 10   102.06     LegendNANA
21:00 3.1 -7.2 47 LegendMM 19 19   102.08     LegendNANA
22:00 2.9 -5.3 55 LegendMM 19 20   102.02     LegendNANA
23:00 2.2 -5.1 58 LegendMM 20 20   101.97     LegendNANA

Notes on Data Quality.

Legend

  • E = Estimated
  • M = Missing
  • NA = Not Available*
  • [empty] = Indicates an unobserved value
Date modified: